SP8UWU-13 Weather Reports


time (UTC)temp
F
wind
direction
speed
knots
gust
knots
rain 1hr
in
rain 24hr
in
rain mn
in
humidity
%
barometer
mb
20260906010244 59 288 3.5 3.5 0.00 0.00 0.00 62
20260906005233 60 300 0.9 0.9 0.00 0.00 0.00 61
20260906003159 60 324 0.9 0.9 0.00 0.00 0.00 60
20260906002148 61 222 0.0 0.0 0.00 0.00 0.00 60
20260906001139 61 270 0.0 0.0 0.00 0.00 0.00 60
20260905235104 61 168 0.9 0.9 0.00 0.00 0.00 60
20260905234056 61 340 0.9 0.9 0.00 0.00 0.00 59
20260905233045 61 58 0.0 0.0 0.00 0.00 0.00 60
20260905231009 59 258 0.0 0.0 0.00 0.00 0.00 66
20260905230001 58 216 0.0 0.0 0.00 0.00 0.00 74
20260905224950 58 234 0.0 0.0 0.00 0.00 0.00 74
20260905222916 58 210 0.0 0.0 0.00 0.00 0.00 76
20260905221907 59 220 0.0 0.0 0.00 0.00 0.00 74
20260905220902 59 305 0.0 0.0 0.00 0.00 0.00 70
20260905214828 59 244 0.0 0.0 0.00 0.04 0.04 73
20260905213816 59 276 0.0 0.0 0.00 0.04 0.04 71
20260905212811 60 240 0.0 0.0 0.00 0.04 0.04 70
20260905210741 58 226 0.0 0.0 0.00 0.04 0.04 76
20260905205731 58 221 0.0 0.0 0.00 0.04 0.04 73
20260905204721 58 222 0.0 0.0 0.00 0.04 0.04 73
20260905202645 58 225 0.0 0.0 0.00 0.04 0.04 76
20260905201644 58 216 0.0 0.0 0.00 0.04 0.04 79
20260905200633 59 232 0.0 0.0 0.00 0.04 0.04 76
20260905194556 59 222 0.0 0.0 0.00 0.04 0.04 76
20260905193544 59 210 0.0 0.0 0.00 0.04 0.04 73
20260905192538 60 246 0.0 0.0 0.00 0.04 0.04 71
20260905190305 60 222 0.0 0.0 0.00 0.04 0.04 69
20260905185253 60 228 0.0 0.0 0.00 0.04 0.04 69
20260905184252 61 234 0.0 0.0 0.00 0.04 0.04 67
20260905182215 62 216 0.0 0.0 0.00 0.04 0.04 67
20260905181204 63 221 0.0 0.0 0.00 0.04 0.04 64
20260905180152 64 221 0.0 0.0 0.00 0.04 0.04 62
20260905174129 66 222 0.0 0.0 0.00 0.04 0.04 55
20260905173117 67 221 0.0 0.0 0.00 0.04 0.04 54
20260905172111 67 305 0.0 0.0 0.00 0.04 0.04 53
20260905170033 67 306 0.0 0.0 0.00 0.04 0.04 54
20260905165022 68 315 0.0 0.0 0.00 0.04 0.04 54
20260905164011 68 102 0.0 0.0 0.00 0.04 0.04 53
20260905161957 69 227 0.0 0.0 0.00 0.04 0.04 52
20260905160944 69 342 0.9 0.9 0.00 0.04 0.04 52
20260905155939 69 225 0.0 0.0 0.00 0.04 0.04 52
20260905153908 72 96 0.0 0.0 0.00 0.04 0.04 47
20260905152904 73 342 0.9 0.9 0.00 0.04 0.04 44
20260905151855 73 275 0.0 0.0 0.00 0.04 0.04 45
20260905145821 71 76 0.0 0.0 0.00 0.04 0.04 47
20260905144809 71 0 1.7 1.7 0.00 0.04 0.04 45
20260905143757 71 241 0.0 0.0 0.00 0.04 0.04 45
20260905141735 73 342 1.7 1.7 0.00 0.04 0.04 43
20260905140735 73 251 0.9 0.9 0.00 0.04 0.04 40
20260905135727 75 330 2.6 2.6 0.00 0.04 0.04 40
20260905133701 73 132 0.0 0.0 0.00 0.04 0.04 41
20260905132654 75 198 0.0 0.0 0.00 0.04 0.04 39
20260905131630 72 330 2.6 2.6 0.00 0.04 0.04 44
20260905125554 72 270 3.5 4.3 0.00 0.04 0.04 43
20260905124547 72 336 1.7 1.7 0.00 0.04 0.04 44
20260905123537 71 288 5.2 5.2 0.00 0.04 0.04 45
20260905121501 72 280 1.7 1.7 0.00 0.04 0.04 48
20260905120501 71 342 1.7 1.7 0.00 0.04 0.04 50
20260905115449 71 30 0.0 0.0 0.00 0.04 0.04 51
20260905113358 70 348 0.0 0.0 0.00 0.04 0.04 54
20260905112357 68 200 2.6 3.5 0.00 0.04 0.04 56
20260905111241 66 179 0.9 0.9 0.00 0.04 0.04 59
20260905105211 66 234 0.0 0.0 0.00 0.04 0.04 62
20260905104159 64 234 0.0 0.0 0.00 0.04 0.04 64
20260905103151 63 310 0.9 0.9 0.00 0.04 0.04 66
20260905101131 62 252 0.0 0.0 0.01 0.04 0.04 70
20260905100123 63 270 0.9 0.9 0.01 0.04 0.04 70
20260905095111 63 344 0.9 0.9 0.01 0.04 0.04 70
20260905093035 61 193 0.0 0.0 0.03 0.04 0.04 72
20260905092026 62 288 0.0 0.0 0.03 0.04 0.04 74
20260905091001 61 225 0.9 0.9 0.04 0.04 0.04 74
20260905084927 61 312 0.0 0.0 0.03 0.03 0.03 74
20260905083916 60 318 2.6 2.6 0.03 0.03 0.03 77
20260905082905 61 270 0.0 0.0 0.02 0.02 0.02 75
20260905080833 62 290 1.7 1.7 0.01 0.01 0.01 70
20260905075822 63 306 0.9 0.9 0.00 0.00 0.00 66
20260905074811 63 34 0.0 0.0 0.00 0.00 0.00 69
20260905072735 65 317 1.7 1.7 0.00 0.00 0.00 61
20260905071724 65 258 1.7 1.7 0.00 0.00 0.00 59
20260905070713 66 204 1.7 1.7 0.00 0.00 0.00 60
20260905064641 66 204 2.6 2.6 0.00 0.00 0.00 61
20260905063629 66 30 0.0 0.0 0.00 0.00 0.00 63
20260905062620 66 130 0.0 0.0 0.00 0.00 0.00 63
20260905060545 66 331 0.0 0.0 0.00 0.00 0.00 62
20260905055534 66 16 1.7 1.7 0.00 0.00 0.00 61
20260905054524 66 299 0.9 0.9 0.00 0.00 0.00 61
20260905052435 66 186 0.0 0.0 0.00 0.00 0.00 60
20260905051424 66 156 0.9 0.9 0.00 0.00 0.00 60
20260905050414 66 264 0.9 0.9 0.00 0.00 0.00 60
20260905044340 66 246 0.0 0.0 0.00 0.00 0.00 60
20260905043333 66 306 0.0 0.0 0.00 0.00 0.00 61
20260905042321 66 291 0.9 0.9 0.00 0.00 0.00 61
20260905040248 66 329 1.7 1.7 0.00 0.00 0.00 63
20260905035236 66 46 0.0 0.0 0.00 0.00 0.00 62
20260905033204 67 186 0.0 0.0 0.00 0.00 0.00 59
20260905032154 68 354 0.0 0.0 0.00 0.00 0.00 57
20260905031143 68 198 0.0 0.0 0.00 0.00 0.00 60
20260905025108 69 160 2.6 2.6 0.00 0.00 0.00 61
20260905024058 69 288 0.0 0.0 0.00 0.00 0.00 61
20260905023047 69 303 0.0 0.0 0.00 0.00 0.00 59
20260905021013 70 204 0.0 0.0 0.00 0.00 0.00 57
20260905020002 70 219 0.0 0.0 0.00 0.00 0.00 56
20260905014951 71 288 0.0 0.0 0.00 0.00 0.00 56
20260905012922 72 284 0.9 0.9 0.00 0.00 0.00 54
20260905011911 71 276 0.0 0.0 0.00 0.00 0.00 54
20260905010859 71 186 0.0 0.0 0.00 0.00 0.00 54